When you browse on this site, cookies collect data to enhance your experience and personalize the content and advertising you see.
Visit our Privacy Policy to learn more. By continuing to use the site, you agree to this use of cookies and data.
  • In Hungary
  • List of Countries
  • For 7 days
  • Water Temperature
  • Satellite Maps
  • Weather Map
  • News
  • Weather Widgets
  • user-avatar
    Login

    Hourly Weather Meudon

    Today, 26 March, Tuesday

    Time Temperature Precipitation Wind Pressure Humidity
    00:00 +5°C° 0 mm 4 mps 768 mmHg 73%
    01:00 +5°C° 0 mm 4 mps 768 mmHg 75%
    02:00 +4°C° 0 mm 3 mps 768 mmHg 77%
    03:00 +4°C° 0 mm 3 mps 768 mmHg 78%
    04:00 +4°C° 0 mm 3 mps 768 mmHg 80%
    05:00 +4°C° 0 mm 2 mps 769 mmHg 81%
    06:00 +4°C° 0 mm 2 mps 769 mmHg 82%
    07:00 +5°C° 0 mm 2 mps 769 mmHg 76%
    08:00 +6°C° 0 mm 2 mps 769 mmHg 70%
    09:00 +8°C° 0 mm 3 mps 769 mmHg 64%
    10:00 +9°C° 0 mm 3 mps 769 mmHg 58%
    11:00 +10°C° 0 mm 3 mps 769 mmHg 51%
    12:00 +11°C° 0 mm 3 mps 769 mmHg 45%
    13:00 +12°C° 0 mm 3 mps 769 mmHg 44%
    14:00 +12°C° 0 mm 3 mps 768 mmHg 44%
    15:00 +13°C° 0 mm 3 mps 768 mmHg 43%
    16:00 +12°C° 0 mm 3 mps 768 mmHg 48%
    17:00 +11°C° 0 mm 3 mps 768 mmHg 52%
    18:00 +10°C° 0 mm 3 mps 768 mmHg 57%
    19:00 +9°C° 0 mm 3 mps 768 mmHg 61%
    20:00 +9°C° 0 mm 3 mps 769 mmHg 66%
    21:00 +8°C° 0 mm 2 mps 769 mmHg 70%
    22:00 +7°C° 0 mm 2 mps 769 mmHg 73%
    23:00 +7°C° 0 mm 2 mps 769 mmHg 76%

    Tomorrow, 27 March, Wednesday

    Time Temperature Precipitation Wind Pressure Humidity
    00:00 +7°C° 0 mm 1 mps 769 mmHg 80%
    01:00 +7°C° 0 mm 1 mps 769 mmHg 81%
    02:00 +7°C° 0 mm 1 mps 769 mmHg 82%
    03:00 +6°C° 0 mm 1 mps 769 mmHg 83%
    04:00 +6°C° 0 mm 1 mps 769 mmHg 83%
    05:00 +6°C° 0 mm 1 mps 769 mmHg 83%
    06:00 +6°C° 0 mm 1 mps 769 mmHg 83%
    07:00 +7°C° 0 mm 1 mps 769 mmHg 75%
    08:00 +8°C° 0 mm 2 mps 769 mmHg 68%
    09:00 +9°C° 0 mm 2 mps 770 mmHg 60%
    10:00 +10°C° 0 mm 2 mps 770 mmHg 56%
    11:00 +13°C° 0 mm 2 mps 769 mmHg 52%
    12:00 +13°C° 0 mm 3 mps 769 mmHg 49%
    13:00 +13°C° 0 mm 3 mps 769 mmHg 49%
    14:00 +13°C° 0 mm 3 mps 769 mmHg 50%
    15:00 +13°C° 0 mm 3 mps 769 mmHg 51%
    16:00 +13°C° 0 mm 3 mps 769 mmHg 55%
    17:00 +12°C° 0 mm 3 mps 769 mmHg 59%
    18:00 +13°C° 0 mm 2 mps 769 mmHg 63%
    19:00 +12°C° 0 mm 2 mps 769 mmHg 67%
    20:00 +10°C° 0 mm 2 mps 770 mmHg 71%
    21:00 +9°C° 0 mm 2 mps 770 mmHg 75%
    22:00 +9°C° 0 mm 2 mps 770 mmHg 78%
    23:00 +8°C° 0 mm 2 mps 770 mmHg 81%

    Day after tomorrow, 28 March, Thursday

    Time Temperature Precipitation Wind Pressure Humidity
    00:00 +8°C° 0 mm 2 mps 770 mmHg 84%
    01:00 +8°C° 0 mm 2 mps 770 mmHg 85%
    02:00 +7°C° 0 mm 2 mps 770 mmHg 86%
    03:00 +7°C° 0 mm 2 mps 770 mmHg 88%
    04:00 +7°C° 0 mm 2 mps 770 mmHg 88%
    05:00 +6°C° 0 mm 2 mps 770 mmHg 87%
    06:00 +6°C° 0 mm 2 mps 771 mmHg 87%
    07:00 +7°C° 0 mm 2 mps 771 mmHg 81%
    08:00 +9°C° 0 mm 2 mps 771 mmHg 75%
    09:00 +10°C° 0 mm 3 mps 771 mmHg 69%
    10:00 +11°C° 0 mm 3 mps 771 mmHg 64%
    11:00 +13°C° 0 mm 3 mps 771 mmHg 59%
    12:00 +14°C° 0 mm 3 mps 771 mmHg 54%
    13:00 +16°C° 0 mm 3 mps 770 mmHg 53%
    14:00 +15°C° 0 mm 4 mps 770 mmHg 53%
    15:00 +17°C° 0 mm 4 mps 770 mmHg 53%
    16:00 +16°C° 0 mm 3 mps 770 mmHg 56%
    17:00 +14°C° 0 mm 3 mps 770 mmHg 59%
    18:00 +14°C° 0 mm 3 mps 769 mmHg 62%
    19:00 +13°C° 0 mm 3 mps 770 mmHg 67%
    20:00 +12°C° 0 mm 3 mps 770 mmHg 71%
    21:00 +12°C° 0 mm 2 mps 770 mmHg 75%
    22:00 +12°C° 0 mm 2 mps 770 mmHg 78%
    23:00 +10°C° 0 mm 2 mps 770 mmHg 80%

    29 March, Friday

    Time Temperature Precipitation Wind Pressure Humidity
    00:00 +10°C° 0 mm 2 mps 770 mmHg 82%
    01:00 +9°C° 0 mm 2 mps 770 mmHg 83%
    02:00 +9°C° 0 mm 2 mps 769 mmHg 84%
    03:00 +8°C° 0 mm 2 mps 769 mmHg 85%
    04:00 +8°C° 0 mm 2 mps 769 mmHg 85%
    05:00 +8°C° 0 mm 2 mps 769 mmHg 85%
    06:00 +7°C° 0 mm 2 mps 769 mmHg 86%
    07:00 +9°C° 0 mm 2 mps 769 mmHg 79%
    08:00 +10°C° 0 mm 2 mps 769 mmHg 73%
    09:00 +12°C° 0 mm 3 mps 769 mmHg 66%
    10:00 +13°C° 0 mm 3 mps 768 mmHg 60%
    11:00 +14°C° 0 mm 3 mps 768 mmHg 54%
    12:00 +17°C° 0 mm 3 mps 767 mmHg 47%
    13:00 +17°C° 0 mm 3 mps 767 mmHg 46%
    14:00 +18°C° 0 mm 3 mps 767 mmHg 45%
    15:00 +18°C° 0 mm 3 mps 766 mmHg 44%
    16:00 +17°C° 0 mm 3 mps 766 mmHg 48%
    17:00 +17°C° 0 mm 3 mps 766 mmHg 52%
    18:00 +16°C° 0 mm 2 mps 766 mmHg 56%
    19:00 +15°C° 0 mm 2 mps 766 mmHg 59%
    20:00 +14°C° 0 mm 2 mps 766 mmHg 63%
    21:00 +13°C° 0 mm 1 mps 766 mmHg 67%
    22:00 +12°C° 0 mm 1 mps 766 mmHg 69%
    23:00 +12°C° 0 mm 1 mps 766 mmHg 72%

    30 March, Saturday

    Time Temperature Precipitation Wind Pressure Humidity
    00:00 +11°C° 0 mm 1 mps 766 mmHg 75%
    01:00 +11°C° 0 mm 1 mps 765 mmHg 76%
    02:00 +10°C° 0 mm 1 mps 765 mmHg 78%
    03:00 +9°C° 0 mm 0 mps 765 mmHg 79%
    04:00 +9°C° 0 mm 0 mps 765 mmHg 80%
    05:00 +8°C° 0 mm 0 mps 765 mmHg 81%
    06:00 +8°C° 0 mm 0 mps 765 mmHg 81%
    07:00 +10°C° 0 mm 0 mps 765 mmHg 75%
    08:00 +11°C° 0 mm 0 mps 765 mmHg 68%
    09:00 +13°C° 0 mm 0 mps 765 mmHg 62%
    10:00 +15°C° 0 mm 0 mps 764 mmHg 56%
    11:00 +16°C° 0 mm 0 mps 764 mmHg 50%
    12:00 +19°C° 0 mm 1 mps 764 mmHg 44%
    13:00 +20°C° 0 mm 1 mps 763 mmHg 42%
    14:00 +19°C° 0 mm 2 mps 763 mmHg 40%
    15:00 +19°C° 0 mm 2 mps 763 mmHg 37%
    16:00 +18°C° 0 mm 2 mps 762 mmHg 40%
    17:00 +18°C° 0 mm 2 mps 762 mmHg 42%
    18:00 +17°C° 0 mm 2 mps 762 mmHg 45%
    19:00 +16°C° 0 mm 2 mps 763 mmHg 51%
    20:00 +14°C° 0 mm 3 mps 763 mmHg 57%
    21:00 +13°C° 0 mm 3 mps 763 mmHg 63%
    22:00 +12°C° 0.1 mm 4 mps 763 mmHg 67%
    23:00 +11°C° 0.1 mm 4 mps 763 mmHg 71%

    31 March, Sunday

    Time Temperature Precipitation Wind Pressure Humidity
    00:00 +9°C° 0.1 mm 5 mps 764 mmHg 75%
    01:00 +9°C° 0 mm 5 mps 764 mmHg 76%
    02:00 +8°C° 0 mm 5 mps 764 mmHg 77%
    03:00 +8°C° 0 mm 5 mps 764 mmHg 78%
    04:00 +7°C° 0 mm 6 mps 764 mmHg 76%
    05:00 +7°C° 0 mm 6 mps 764 mmHg 74%
    06:00 +5°C° 0 mm 6 mps 764 mmHg 72%
    07:00 +7°C° 0 mm 6 mps 765 mmHg 67%
    08:00 +7°C° 0 mm 6 mps 765 mmHg 62%
    09:00 +7°C° 0 mm 6 mps 765 mmHg 58%
    10:00 +8°C° 0 mm 6 mps 765 mmHg 55%
    11:00 +9°C° 0 mm 6 mps 765 mmHg 52%
    12:00 +10°C° 0 mm 6 mps 765 mmHg 49%
    13:00 +10°C° 0 mm 6 mps 765 mmHg 47%
    14:00 +11°C° 0 mm 6 mps 764 mmHg 46%
    15:00 +11°C° 0 mm 6 mps 764 mmHg 44%
    16:00 +11°C° 0 mm 6 mps 764 mmHg 45%
    17:00 +10°C° 0 mm 6 mps 764 mmHg 47%
    18:00 +9°C° 0 mm 6 mps 764 mmHg 48%
    19:00 +8°C° 0 mm 6 mps 764 mmHg 47%
    20:00 +7°C° 0 mm 6 mps 765 mmHg 47%
    21:00 +5°C° 0 mm 6 mps 765 mmHg 46%
    22:00 +6°C° 0 mm 5 mps 765 mmHg 47%
    23:00 +5°C° 0 mm 5 mps 764 mmHg 48%
    Show more